Lid_Strength_Index
9 9 9 8 8 7 8 7 7 7 6 7 8 9 9 9 9 9 8 7 7 7 7 6 6 6 7 7 7 8 8 8 8 6 6 5 6 6 6 6 5 5 4
9 9 8 7 8 7 7 7 7 7 7 8 8 8 7 8 8 8 8 8 7 7 7 6 6 5 7 7 7 7 8 7 7 7 6 5 6 5 6 6 5 5 5
8 7 7 8 8 8 8 8 8 8 9 8 8 8 8 8 8 8 8 8 8 7 7 7 7 7 7 5 6 6 6 5 5 6 6 5 5 4 5 5 6 5 5
7 7 8 8 8 8 8 8 8 8 9 8 8 7 7 8 8 8 8 8 8 8 7 7 7 6 5 5 6 6 6 6 6 6 6 6 6 5 5 6 6 4 5
7 8 8 8 8 8 9 8 8 8 7 7 7 8 8 8 8 8 8 9 9 8 8 7 6 4 4 5 6 6 6 6 6 7 7 8 8 8 8 6 6 5 5
7 7 7 8 8 9 9 9 9 9 8 8 8 9 10 8 8 7 8 9 9 9 9 8 7 5 5 5 5 5 5 6 6 6 7 9 9 8 7 7 7 7 7
7 7 8 8 9 9 9 9 9 10 9 9 10 10 10 10 9 8 7 9 9 9 9 8 7 5 6 7 6 5 5 5 4 5 7 8 8 8 7 7 7 6 7
8 8 8 9 9 9 9 10 10 10 10 10 10 10 11 10 9 9 8 9 9 9 7 6 6 6 6 7 7 7 6 6 5 5 6 6 6 7 7 6 6 6 5
8 9 9 9 10 10 10 11 10 10 10 9 10 10 11 11 9 9 9 9 9 9 7 6 6 7 8 8 7 7 7 7 5 5 6 6 8 7 6 5 6 7 7
8 8 9 9 9 10 11 10 10 10 9 8 9 10 9 11 9 10 10 10 10 9 9 8 7 7 8 9 9 8 8 7 7 5 5 5 5 6 5 6 6 7 7
8 8 9 10 10 10 11 11 10 11 11 11 11 11 11 10 10 10 10 11 11 10 9 8 7 8 9 9 9 9 9 8 6 6 6 5 5 5 5 6 5 6 7
9 9 9 10 9 10 11 12 11 11 12 12 12 12 12 11 9 10 10 10 9 10 9 9 8 9 9 10 9 9 9 8 8 7 7 7 6 6 4 5 6 5 4
10 11 10 10 10 11 12 12 12 12 12 12 12 13 13 12 11 10 10 10 9 9 9 8 9 10 10 10 10 9 9 9 9 9 8 8 7 5 4 5 5 5 5
11 11 11 12 12 12 12 12 12 13 13 13 12 13 13 13 12 11 11 11 9 9 9 10 10 10 10 10 11 10 10 10 10 10 9 8 7 6 4 4 6 5 6
11 11 12 12 12 13 13 12 12 13 12 13 13 13 13 13 13 12 12 12 11 11 11 12 12 13 13 13 12 12 11 11 11 11 11 10 8 7 5 3 5 6 6
12 12 12 13 13 13 13 13 11 11 11 12 12 11 12 12 12 12 11 11 12 12 13 14 14 14 14 14 14 13 13 12 12 11 11 11 9 8 6 4 3 4 5
12 13 13 13 13 13 12 12 13 12 11 11 12 11 12 12 12 12 12 12 12 13 14 15 15 15 15 15 14 14 14 13 13 12 12 11 10 8 6 5 4 4 4
12 12 13 13 11 11 11 12 12 13 11 11 11 11 12 12 12 12 12 12 13 14 15 15 16 16 16 15 15 15 15 14 14 14 13 12 10 9 7 7 6 5 5
12 13 13 12 12 12 12 13 13 11 11 11 11 11 11 12 11 11 12 13 16 16 16 16 16 16 16 16 16 15 16 16 15 15 14 13 11 9 8 7 6 9 8
11 11 11 12 12 12 13 13 13 12 12 12 12 12 11 11 11 12 12 14 16 16 16 17 17 17 17 17 17 16 16 16 16 16 15 14 12 10 9 8 8 8 7
11 12 13 11 12 13 13 13 11 12 12 12 12 12 14 11 11 13 14 15 16 17 17 17 18 18 18 17 18 17 17 16 17 17 16 15 13 12 11 9 9 9 8
10 11 11 12 12 13 13 12 12 12 12 12 12 12 13 11 12 13 14 15 16 17 17 17 18 18 18 18 18 18 18 17 17 17 16 15 13 12 12 11 11 10 9
10 10 10 11 12 13 12 12 12 12 12 12 12 12 12 12 12 13 14 15 16 17 17 17 18 18 17 17 17 18 19 18 17 16 15 15 14 13 12 12 12 12 11
10 11 11 11 12 13 13 13 13 13 13 12 12 12 13 13 14 14 15 16 16 17 17 17 17 17 17 17 17 17 18 17 17 16 15 13 14 14 13 13 12 12 12
11 12 12 12 13 13 14 13 13 12 12 13 14 14 14 14 15 15 16 16 16 16 17 17 17 17 16 17 17 17 17 16 17 16 15 14 13 13 13 13 13 12 12
12 12 12 13 13 13 12 12 12 12 13 14 14 14 15 15 16 16 16 16 17 17 16 16 16 16 16 16 16 16 17 16 17 16 16 15 14 14 13 13 14 13 13